GFSSW_700_rhum_024.txt.gz
RH
12 13 14 13 10 6 7 8 8 14 15 13 12 20 22 15 9 28 30 34 11 15 14 16 18 18 17 18 15 15 16 18 18 20 17 17 16 20 24 34 32 46 43 53 23
16 17 16 15 13 7 6 8 8 17 12 11 20 24 17 12 36 40 38 13 14 15 16 15 16 18 18 18 16 14 14 13 12 13 14 13 13 15 24 26 30 47 58 55 16
20 19 18 16 14 10 8 8 11 13 10 20 26 20 11 34 43 41 10 14 16 17 16 24 19 17 18 16 15 14 14 13 11 12 12 12 13 16 19 19 27 37 61 37 6
22 21 19 17 16 12 10 8 10 10 17 26 23 14 22 38 38 24 11 17 18 17 14 24 17 18 16 15 14 14 13 11 11 12 11 11 12 14 14 18 22 27 40 66 42
22 21 20 17 15 12 10 9 10 16 26 25 18 14 35 41 36 24 13 19 18 21 25 23 19 16 14 14 12 14 10 11 13 11 15 16 15 15 16 18 21 32 44 61 73
22 21 19 14 12 11 9 10 18 27 27 22 16 16 38 53 34 32 12 18 27 24 22 21 20 17 12 12 14 16 16 17 17 18 12 17 20 17 17 19 20 31 42 52 64
21 20 17 12 10 10 12 20 28 29 26 19 18 23 44 45 28 31 23 26 32 30 26 25 22 18 19 21 20 19 20 22 22 23 23 20 21 20 22 21 20 23 31 42 48
20 19 16 13 12 16 24 30 30 27 22 16 16 21 52 37 26 20 26 23 23 30 32 24 22 28 28 25 19 19 20 21 23 24 25 23 22 19 22 23 23 24 25 28 40
20 19 17 16 20 27 31 30 29 25 20 16 14 37 47 15 14 26 18 26 26 18 14 13 23 22 23 22 20 19 18 20 25 22 25 24 22 21 25 28 26 25 26 29 32
20 19 21 23 29 32 34 35 29 24 20 16 26 50 28 28 18 10 12 17 30 24 22 24 28 24 23 22 21 18 13 15 16 23 18 17 19 22 26 28 27 25 24 26 29
24 24 28 31 33 40 34 29 26 23 36 41 28 37 24 11 11 19 12 15 34 34 32 25 26 24 23 21 19 18 16 15 17 23 22 19 21 24 27 29 31 30 31 31 32
26 30 32 33 40 33 40 67 47 42 42 39 31 33 18 31 28 23 17 33 31 29 27 20 23 27 24 14 22 20 21 21 24 26 19 24 24 26 32 36 35 37 36 39 43
33 32 33 40 38 39 69 71 43 27 35 34 36 31 21 35 31 31 24 29 26 24 18 29 29 12 12 27 27 24 26 34 31 29 28 27 26 29 34 39 40 43 48 55 55
35 33 40 39 35 39 45 41 26 34 30 26 30 20 20 34 25 21 20 27 23 19 19 30 32 29 30 31 31 27 40 39 33 31 25 26 24 29 35 40 45 49 51 55 58
34 35 40 36 44 43 33 25 34 42 41 30 30 31 29 38 34 18 7 18 26 26 27 32 33 35 33 41 27 35 36 24 37 35 30 25 28 30 34 39 46 55 62 66 67
36 33 37 38 38 41 28 24 22 61 43 30 29 34 32 35 36 35 26 30 31 28 31 37 29 40 44 33 33 27 44 38 38 36 38 28 26 37 32 38 50 64 74 77 79
39 39 34 36 36 34 24 21 40 50 31 32 31 34 35 36 36 37 37 37 39 34 36 36 40 46 26 42 44 40 39 41 56 49 51 37 30 44 44 46 52 66 73 72 75
38 38 35 34 26 30 24 49 54 34 28 27 32 36 36 38 40 39 37 38 38 40 33 33 44 43 40 38 45 44 40 51 56 62 45 35 26 49 53 45 43 58 72 78 84
33 33 29 26 23 26 25 61 42 31 32 32 32 33 38 41 41 41 43 46 45 43 42 34 43 30 31 34 40 45 50 41 45 55 49 24 46 52 57 62 63 66 69 75 80
27 27 26 26 22 23 49 60 49 40 32 32 31 32 32 35 39 40 42 51 42 28 42 40 45 42 40 44 54 42 36 45 50 64 47 25 26 51 56 60 62 62 62 71 77
24 29 26 28 26 31 71 69 50 36 40 33 33 34 35 37 38 42 47 44 50 26 41 41 43 42 41 46 36 42 44 49 40 43 51 52 34 39 48 53 57 60 61 74 79
26 64 45 26 24 40 62 52 48 29 35 42 44 39 42 44 44 49 50 60 29 31 50 14 41 35 33 31 25 45 46 48 50 48 52 55 48 48 48 56 61 68 74 85 80
43 91 70 17 58 56 64 56 51 50 45 51 55 53 54 50 56 54 60 33 28 20 44 19 58 48 40 53 53 42 44 48 56 56 54 59 44 49 49 63 74 83 72 81 91
87 83 43 30 83 61 67 63 54 52 55 57 57 58 56 60 58 62 56 31 23 13 15 21 56 47 46 38 38 37 37 39 41 49 56 58 54 48 48 74 78 75 81 84 87
90 71 35 27 76 61 55 53 59 48 46 48 54 53 56 57 58 62 71 24 17 14 14 23 50 54 44 42 41 41 42 43 44 44 44 46 46 50 65 69 69 77 77 69 74
80 87 62 75 45 65 59 55 52 50 54 52 54 55 59 56 53 59 60 58 62 24 57 32 48 30 23 44 45 35 39 52 48 45 46 55 54 55 62 66 70 70 75 68 67
74 68 68 49 70 66 68 58 53 59 51 56 55 60 54 58 52 54 49 50 54 62 59 50 30 32 33 30 28 58 47 50 51 51 56 57 61 59 72 83 83 71 68 72 80

GFSSW_700_rhum_030.txt.gz
RH
25 22 21 17 10 8 8 8 6 15 18 21 24 28 27 14 16 14 11 11 8 10 12 11 10 10 18 23 20 17 17 18 20 34 45 24 27 33 34 32 43 40 40 29 22
23 21 18 13 12 12 10 9 6 9 10 12 20 21 14 17 15 13 18 10 13 15 15 17 19 18 15 19 17 18 14 17 25 25 21 25 22 17 25 32 33 34 34 18 22
21 17 14 12 16 15 13 10 6 8 8 14 16 13 18 36 41 27 10 14 15 17 19 21 19 18 17 19 18 17 12 16 19 19 15 12 14 14 16 18 17 11 17 23 21
16 14 15 17 18 17 14 11 6 8 12 16 13 18 34 42 42 20 14 18 18 19 20 20 19 18 18 17 16 12 11 13 13 11 11 12 16 17 18 20 24 23 23 14 10
14 17 18 19 20 18 15 11 8 8 16 12 18 24 41 40 32 17 16 21 26 25 29 28 23 21 19 18 14 14 12 11 12 12 11 13 14 18 19 23 27 29 25 28 40
19 19 19 20 20 18 15 11 10 11 12 18 18 37 45 44 36 16 26 32 30 29 27 24 23 19 19 17 14 13 12 10 9 14 14 13 14 15 19 17 20 30 25 34 48
20 21 21 20 20 17 14 11 10 11 16 21 20 43 44 38 35 22 29 32 32 32 26 22 23 22 16 14 14 13 6 6 5 11 11 13 17 17 16 18 18 19 25 31 47
22 22 21 20 17 13 11 10 14 20 23 17 32 39 45 33 32 29 28 30 31 31 24 22 22 25 20 18 18 17 21 22 22 22 19 18 20 18 18 19 20 24 22 29 48
24 22 20 17 13 11 12 20 26 25 21 15 22 43 43 22 21 26 18 21 24 27 20 20 25 22 21 16 16 19 20 22 23 24 24 26 23 23 21 22 24 23 23 29 44
23 20 17 13 12 18 27 29 27 23 16 17 30 34 30 29 17 21 18 15 17 13 10 19 17 17 22 19 20 21 20 19 23 24 25 26 20 23 22 24 24 24 23 25 28
22 19 14 15 27 29 29 27 24 17 14 20 36 33 30 28 27 12 12 9 9 8 14 23 28 28 25 22 20 22 21 22 24 23 21 20 23 24 25 28 29 28 27 26 27
21 18 19 28 31 31 32 30 20 19 30 38 40 32 24 30 24 11 13 19 17 26 33 33 31 26 23 18 18 27 23 25 24 26 22 28 28 29 29 28 30 27 29 30 30
21 24 31 33 36 40 47 25 29 40 39 35 35 30 28 31 28 15 22 25 30 30 31 30 26 23 27 25 20 28 30 28 31 30 28 30 34 32 35 34 37 37 34 34 36
28 32 37 38 43 77 39 39 46 46 36 35 36 25 33 36 28 21 32 30 27 26 26 28 26 24 26 28 26 32 35 34 32 30 19 27 39 53 50 44 45 40 37 39 45
33 37 41 40 64 54 56 51 47 43 46 24 31 26 32 33 21 25 26 27 25 29 29 30 26 33 35 35 35 25 25 25 30 31 24 31 34 52 51 48 46 46 39 40 36
34 42 47 43 61 52 48 43 45 49 37 35 33 27 37 36 37 11 24 31 30 25 32 32 35 29 33 34 37 38 38 39 41 44 46 44 42 49 47 41 46 48 48 48 45
36 46 46 39 52 50 40 39 44 57 30 31 26 28 28 33 30 14 27 31 35 34 32 33 39 26 37 43 43 38 41 46 57 68 63 48 46 53 47 45 45 55 54 54 61
36 43 41 34 40 49 36 37 56 33 30 27 34 35 38 37 39 39 30 38 37 40 40 42 46 41 23 42 43 42 46 44 57 76 54 46 61 64 57 56 66 68 72 70 71
36 43 40 32 34 41 33 40 54 35 28 33 35 37 35 38 40 40 40 38 40 43 39 46 42 40 25 29 46 46 45 40 48 60 57 58 66 66 69 72 82 89 82 82 76
36 38 37 32 36 33 30 60 54 34 32 30 36 37 37 36 40 45 44 44 28 43 40 45 42 39 46 37 37 35 33 46 45 61 59 55 60 60 66 67 73 66 75 79 79
41 35 32 32 35 32 27 67 59 34 33 32 34 35 36 33 31 44 45 44 33 45 41 46 35 34 38 34 28 40 48 42 45 48 64 79 52 55 62 66 72 78 79 81 90
39 36 34 31 33 32 22 67 59 39 33 34 34 35 36 36 40 46 46 45 33 25 25 46 34 42 42 37 32 30 40 37 31 48 50 58 54 56 55 60 74 72 79 82 79
34 31 31 30 28 29 24 59 55 46 34 35 40 37 38 38 45 47 47 46 32 27 22 29 37 41 43 47 39 40 51 42 44 44 45 48 43 60 54 58 70 73 81 81 80
31 56 39 27 26 24 62 59 53 40 40 39 45 46 48 44 46 46 50 48 38 25 25 25 30 37 33 36 34 36 35 37 40 47 48 50 46 46 51 54 62 61 74 80 79
33 69 63 30 26 22 58 67 55 41 46 48 42 43 50 53 53 51 51 45 29 17 18 25 23 26 35 43 44 40 27 32 38 41 47 45 48 49 60 62 68 72 76 77 78
78 63 70 59 56 28 61 59 56 47 50 51 46 44 57 56 48 42 45 38 26 15 14 17 20 24 29 21 16 24 28 31 37 41 52 56 58 64 66 66 69 76 78 79 78
91 84 55 38 78 63 59 51 57 58 51 47 46 56 59 57 56 57 52 51 33 27 17 18 18 21 16 18 37 28 33 46 49 51 51 52 54 60 68 77 78 75 71 70 77

GFSSW_700_rhum_033.txt.gz
RH
27 29 26 20 20 18 12 9 8 7 10 22 27 31 31 31 28 15 14 14 12 6 6 6 9 14 12 8 13 20 19 22 35 43 49 48 50 41 37 35 37 36 37 29 22
29 28 24 20 17 14 11 12 10 8 10 16 16 21 26 26 15 14 14 14 12 16 16 14 14 18 14 21 23 22 19 16 25 43 46 40 32 29 30 32 33 34 34 25 18
28 27 20 16 13 12 15 15 12 8 8 9 10 20 20 17 25 25 13 14 16 16 16 19 16 15 18 20 22 20 16 21 25 29 29 21 16 15 25 20 19 15 16 10 16
29 23 16 13 13 17 19 16 13 7 8 8 16 16 17 38 32 14 15 16 20 25 24 24 21 19 21 20 19 14 17 20 23 23 18 16 17 17 20 22 21 15 13 6 7
25 16 13 16 17 20 20 16 13 6 7 15 14 17 35 37 27 17 15 24 23 26 31 31 23 23 20 19 14 13 14 12 12 12 13 13 16 15 18 22 21 22 19 30 40
17 14 17 18 19 21 19 16 11 7 10 16 15 23 39 36 30 20 33 33 30 33 26 25 24 23 21 16 13 11 11 12 12 13 12 14 14 14 19 21 18 24 22 37 46
15 20 18 20 21 21 19 15 10 8 14 13 20 40 46 39 36 26 31 32 33 32 26 24 24 22 17 15 14 12 11 11 14 12 12 13 14 15 15 16 18 23 27 45 58
21 21 21 22 21 20 17 13 9 11 13 21 26 46 43 36 33 27 29 29 32 32 26 23 28 20 15 16 15 20 20 12 13 14 13 12 14 15 15 16 20 24 25 40 54
23 22 22 21 20 16 13 10 11 16 23 20 35 39 39 32 26 28 26 25 30 30 23 22 26 20 19 19 18 19 21 22 23 21 22 18 24 22 19 19 21 22 23 30 42
23 22 20 19 15 14 12 16 24 28 25 19 36 32 25 26 21 18 23 22 23 21 18 19 22 20 19 14 14 16 19 20 21 23 25 26 23 23 22 21 22 22 23 25 29
22 21 18 14 14 15 26 29 31 26 20 24 31 37 29 26 22 18 17 14 16 16 10 21 24 22 23 23 23 23 22 23 21 23 25 24 21 23 22 22 22 22 25 25 25
21 19 15 14 20 30 34 34 27 21 15 22 34 28 27 28 25 12 11 10 10 9 27 28 28 26 25 22 22 23 23 24 24 24 25 25 23 24 21 22 24 26 29 29 28
22 18 17 27 33 41 41 29 22 19 30 39 35 26 31 31 22 14 15 13 16 28 32 28 27 28 24 24 22 24 25 25 25 27 27 29 34 34 31 30 30 33 35 39 48
21 19 28 37 42 51 38 23 26 39 37 37 36 29 32 33 30 18 19 28 31 29 28 29 24 24 24 26 29 31 29 28 30 30 29 32 49 54 40 39 41 42 48 54 62
22 30 37 41 74 63 40 37 43 41 50 31 31 29 37 31 25 23 34 30 26 27 29 29 28 27 28 30 34 28 33 31 34 30 27 37 39 56 65 56 50 53 58 61 61
29 36 47 43 62 58 48 44 48 48 35 30 32 34 36 35 26 26 31 28 27 29 32 29 32 33 35 37 33 33 37 38 43 44 48 51 47 54 52 49 51 52 51 53 56
35 40 48 50 65 58 53 46 47 54 31 34 29 23 35 35 32 19 29 34 33 34 34 38 27 28 27 44 41 33 39 47 58 66 66 53 53 53 55 54 51 48 52 59 60
38 50 47 50 60 53 46 45 42 44 30 30 28 27 32 33 31 23 33 33 36 32 37 36 45 31 41 43 43 37 40 40 56 73 55 52 63 59 54 55 59 68 73 74 70
40 50 46 44 53 47 41 39 58 36 32 30 35 37 38 41 40 28 33 37 40 42 38 42 44 34 19 34 43 45 41 34 43 61 56 64 69 64 62 64 68 75 79 74 68
38 48 44 38 43 42 38 43 51 36 32 36 36 36 39 40 42 43 43 39 36 41 42 43 43 37 42 38 36 36 42 44 44 61 58 58 68 63 69 68 67 70 70 71 83
38 45 41 34 34 38 38 60 55 39 32 35 38 38 35 36 40 44 44 44 38 40 43 44 38 39 46 37 36 39 35 34 42 49 68 78 57 54 58 64 66 67 74 72 76
39 43 40 34 33 36 33 64 56 47 34 33 36 36 36 35 37 45 43 43 38 36 41 47 36 42 40 24 24 25 32 31 24 40 50 57 49 49 53 68 70 79 82 79 79
42 38 38 34 31 31 31 60 59 51 38 38 36 37 36 36 40 43 44 47 44 30 31 44 37 44 41 37 37 36 38 38 37 33 38 54 39 48 62 70 70 67 64 72 74
44 41 38 31 28 28 26 34 56 50 39 35 40 38 39 41 44 45 47 48 45 31 30 30 31 32 26 28 37 38 41 40 39 42 45 43 41 49 55 59 62 64 67 72 80
42 50 32 29 27 26 28 52 54 52 40 41 42 48 43 44 45 46 48 51 43 32 23 24 25 34 33 35 30 27 34 32 27 30 40 31 40 47 52 56 62 65 70 75 83
40 69 29 30 21 23 38 65 60 51 40 39 34 41 45 44 43 44 48 46 38 27 16 20 25 27 32 28 27 25 17 24 28 31 31 34 36 42 49 52 69 73 73 77 85
50 72 58 38 24 22 26 62 47 47 48 48 49 44 44 50 51 46 50 44 33 26 16 14 17 23 28 22 20 22 12 21 24 35 38 43 38 51 54 60 67 71 79 88 88

GFSSW_700_rhum_036.txt.gz
RH
37 35 23 25 27 22 19 17 14 9 7 7 15 27 32 32 31 30 23 15 12 13 7 8 9 14 9 9 13 16 17 24 28 61 56 58 58 49 52 46 47 42 36 25 21
32 26 24 26 27 20 16 14 11 11 9 7 17 23 26 26 29 20 14 14 14 9 6 8 10 11 10 9 13 17 20 18 31 34 36 43 44 49 51 44 36 36 33 22 21
26 24 26 27 24 16 13 13 14 13 11 7 12 12 17 22 17 40 20 16 15 16 16 17 17 17 14 15 20 21 19 20 26 38 43 39 51 52 33 26 14 30 28 16 17
24 26 27 27 18 13 15 18 18 15 11 7 9 11 17 18 34 18 16 16 16 18 18 18 18 16 14 20 20 17 20 31 31 37 41 39 38 26 23 21 18 20 9 7 12
24 28 28 22 14 16 19 20 18 15 8 7 10 15 17 32 30 22 18 20 21 26 27 30 24 20 19 20 20 16 16 22 27 33 32 27 20 17 22 22 20 23 30 35 29
26 29 26 14 18 18 21 20 17 14 6 7 15 14 35 35 25 27 33 28 32 31 26 23 25 25 23 21 20 14 14 18 19 19 17 18 17 18 19 22 21 24 35 49 51
28 27 16 17 20 21 22 20 17 11 7 12 14 23 38 36 28 33 32 32 34 30 27 26 29 24 22 17 13 12 13 13 14 13 14 17 14 14 16 18 21 28 43 54 57
28 18 18 20 22 22 21 20 15 9 9 13 19 36 38 41 28 31 32 32 34 30 25 24 25 21 18 15 14 15 11 14 13 12 13 13 13 15 16 17 20 25 34 49 59
21 16 21 21 22 21 20 18 13 10 12 16 27 45 44 39 28 28 30 31 31 29 21 22 27 17 18 16 16 22 21 16 14 15 14 13 22 21 19 19 19 24 23 32 49
16 21 22 22 21 19 17 14 11 12 18 24 36 35 38 37 25 27 25 26 29 28 18 21 25 20 18 18 19 20 21 21 22 22 23 20 21 26 24 20 20 22 23 25 32
20 22 21 21 19 15 14 12 19 24 25 24 36 35 30 28 26 23 26 24 20 22 12 21 22 22 18 18 20 18 23 22 23 22 23 25 27 22 22 22 21 24 27 29 30
22 21 20 18 14 13 16 28 30 25 24 26 33 35 32 28 26 21 18 16 14 13 19 28 25 24 24 22 21 22 22 26 26 22 25 25 25 23 24 22 23 29 30 26 30
22 20 18 16 17 27 35 32 30 28 20 25 30 32 29 32 26 15 15 14 12 15 30 28 28 25 25 24 22 23 25 28 28 27 25 24 29 27 24 22 22 25 26 30 34
22 19 16 22 32 41 35 30 26 23 32 35 37 29 33 33 28 18 16 17 19 30 30 26 27 28 27 26 22 29 29 31 31 30 30 32 36 40 33 28 32 35 41 47 56
21 17 22 31 48 49 37 27 39 40 45 35 36 28 32 35 28 24 23 31 30 31 28 28 24 24 23 24 22 29 34 32 32 31 29 35 36 41 46 44 40 46 57 68 72
21 21 34 40 70 65 38 39 46 43 47 33 31 31 38 36 28 30 33 30 29 29 30 25 28 26 27 33 35 31 27 29 37 44 51 45 41 46 39 35 46 58 64 65 64
22 32 42 49 71 72 42 49 49 47 30 32 29 36 38 36 28 31 32 29 31 34 33 34 33 31 30 37 38 36 38 47 60 67 68 55 56 48 46 45 58 56 58 60 62
30 38 49 59 69 65 51 51 45 51 29 32 25 32 39 36 26 24 33 31 32 30 34 35 34 35 34 38 41 40 42 46 58 79 62 53 58 52 48 54 60 60 61 62 70
38 48 50 57 68 59 55 48 49 50 33 30 31 30 37 37 28 31 36 36 37 33 30 41 44 34 26 45 43 43 45 36 38 60 56 51 58 53 51 55 57 60 61 68 70
41 52 50 50 64 56 50 44 47 43 34 29 32 35 38 43 35 31 33 37 39 41 36 41 43 36 37 34 42 44 43 45 44 57 56 55 62 52 52 55 57 59 64 70 72
43 53 51 49 56 52 44 42 56 48 33 33 36 39 35 41 40 42 40 41 36 38 44 44 41 41 38 41 39 39 38 34 37 48 67 79 52 45 55 57 59 63 70 70 70
46 51 48 49 49 47 39 45 60 48 34 36 37 37 37 38 39 43 43 42 41 36 45 45 42 40 42 39 28 34 34 33 19 34 50 53 39 38 49 50 66 73 74 71 71
46 50 46 44 42 42 36 52 59 50 43 37 37 38 37 38 42 44 42 43 46 32 42 46 41 42 41 35 30 32 28 28 30 32 36 56 28 30 35 45 60 72 72 72 74
49 49 46 42 36 36 36 41 58 55 40 39 37 37 37 39 37 39 43 47 49 42 32 38 40 35 33 26 27 33 31 29 31 39 33 28 24 30 38 45 56 67 68 73 78
55 48 43 41 35 31 33 34 56 53 42 38 40 42 39 41 44 45 48 48 49 44 35 29 32 34 32 26 26 24 26 24 29 29 34 20 25 28 37 50 57 62 68 73 76
58 52 40 32 31 28 29 30 32 51 40 30 39 48 48 46 45 45 47 50 49 42 31 28 29 26 34 33 30 26 25 20 18 23 24 23 21 24 33 40 47 51 60 70 76
55 56 37 32 30 26 26 36 42 47 38 42 39 39 44 46 45 46 48 45 41 36 26 20 19 23 25 23 28 29 13 12 8 8 19 23 21 35 37 43 48 55 63 78 84